Location: Mesa Verde
(33.6055°N, 114.7275°W)
Time: 15:06:53
(UTC+00:00)

ISS - Visible Passes

Search period start: 26 September 2021 00:00
Search period end: 06 October 2021 00:00
Orbit: 417 x 423 km, 51.6° (Epoch: 26 September)

Date Brightness Start Highest point End Pass type
(mag) Time Alt. Az. Time Alt. Az. Time Alt. Az.
03 Oct -1.6 02:58:06 10° NNW 02:59:36 18° N 02:59:36 18° N visible
04 Oct -1.7 02:11:46 10° N 02:13:45 15° NNE 02:14:45 13° NE visible
04 Oct -0.3 03:47:33 10° NW 03:47:46 11° NW 03:47:46 11° NW visible
05 Oct -2.8 03:00:43 10° NW 03:03:06 42° NNW 03:03:06 42° NNW visible
